Voltar ao catálogo

FENGYUN 1C DEB

AtivoSSO
NORAD 35231·DEBRIS·🇨🇳 China

Lançado May 10, 1999 de Taiyuan Satellite Launch Center

Loading…

Próximas Passagens (próximas 24 horas)

TLE

EnvelhecendoSource: Space-Track

Época: Sep 11, 2026, 01:32 UTC

1 35231U 99025DQP 26254.06430571 -.00000001  00000-0  21527-4 0  9997
2 35231  98.6840 295.2671 0037450  28.8693 331.4542 14.14546994953521

Acompanhe FENGYUN 1C DEB em tempo real com AllMySat

Download on the App Store